Regional Weather Roundup
Issued by NWS Goodland, KS

Home | Current Version | Previous Version | Text Only | Print | Product List | Glossary Off
Versions: 1 2 3 4 5 6 7 8 9 10 11 12 13 14 15 16 17 18 19 20 21 22 23 24 25 26 27 28 29 30 31 32 33 34 35 36 37 38 39 40 41 42 43 44 45 46 47 48 49 50

000
ASUS43 KGLD 262359
RWRGLD

GOODLAND FORECAST AREA HOURLY WEATHER ROUNDUP
NATIONAL WEATHER SERVICE GOODLAND KS
500 PM MST FRI DEC 26 2014

...OFFICIAL OBSERVATIONS...

CITY           SKY/WX    TMP DP  RH WIND       PRES   REMARKS
GOODLAND KS    LGT SNOW  20  18  92 N10       29.99S FOG     WCI   9
HILL CITY KS   LGT SNOW  26  22  84 N16       30.02S FOG     WCI  14
IMPERIAL NEB   LGT SNOW  20  16  84 N15       30.03R FOG     WCI   6
MCCOOK NEB     CLOUDY    23  20  88 N10       30.03S WCI  12
AKRON CO       LGT SNOW  15  13  91 N14       29.98R FOG     WCI   0
BURLINGTON CO  LGT SNOW  19  14  81 N12       29.98R WCI   7
LIMON CO       CLOUDY    13  10  88 N9        29.94R
$$

...UNOFFICIAL OBSERVATIONS...

CITY           SKY/WX    TMP DP  RH WIND       PRES   REMARKS
COLBY KS       LGT SNOW  23  21  93 NW13      30.01F WCI  11
NORTON KS      LGT SNOW  25  21  86 N13       30.01S WCI  13
SHARON SPRINGS   N/A     21  19  91 NE8G15      N/A
TRIBUNE KS     CLOUDY    23  23 100 N10       30.02R WCI  12
KIT CARSON CO    N/A     19  15  83 MISG        N/A
$$


USA.gov is the U.S. government's official web portal to all federal, state and local government web resources and services.